Regional Weather Roundup
Issued by NWS

Home | Current Version | Previous Version | Graphics & Text | Print | Product List | Glossary On
Versions: 1 2 3 4 5 6 7 8 9 10 11 12 13 14 15 16 17 18 19 20 21 22 23 24 25 26 27 28 29 30 31 32 33 34 35 36 37 38 39 40 41 42 43 44 45 46 47 48 49 50
810
ASUS45 KCYS 221210
RWRWY

WYOMING REGIONAL WEATHER ROUNDUP
NATIONAL WEATHER SERVICE CHEYENNE WY
600 AM MDT TUE AUG 22 2017

NOTE:  "FAIR" INDICATES FEW OR NO CLOUDS BELOW 12,000 FEET
WITH NO SIGNIFICANT WEATHER AND/OR OBSTRUCTIONS TO VISIBILITY.

WYZ001-221300-
YELLOWSTONE NATIONAL PARK

CITY           SKY/WX    TMP DP  RH WIND       PRES   REMARKS
LK YELLOWSTONE   N/A     35  34  96 CALM      30.44S
6HR MIN TEMP:  35; 6HR MAX TEMP:  43;

W YELLOWSTONE  NOT AVBL

$$
WYZ002>013-054>058-071-098>099-221300-
NORTHERN WYOMING

CITY           SKY/WX    TMP DP  RH WIND       PRES   REMARKS
JACKSON        FAIR      36  28  73 CALM      30.37R
CODY           FAIR      54  35  48 S7        30.27R
GREYBULL       FAIR      51  34  52 CALM      30.20R
6HR MIN TEMP:  51; 6HR MAX TEMP:  66;

WORLAND        FAIR      45  35  68 S5        30.21R
6HR MIN TEMP:  45; 6HR MAX TEMP:  60;

SHERIDAN       FAIR      44  38  79 NW3       30.20R
6HR MIN TEMP:  44; 6HR MAX TEMP:  53;

BUFFALO        FAIR      57  32  38 SW7       30.25S
6HR MIN TEMP:  54; 6HR MAX TEMP:  63;

GILLETTE       FAIR      58  37  45 S16       30.23R
6HR MIN TEMP:  48; 6HR MAX TEMP:  59;

HULETT         FAIR      52  36  54 CALM      30.25R
NEWCASTLE      FAIR      46  34  61 E8        30.28S

$$
WYZ014>020-022>026-101>103-221300-
CENTRAL WYOMING

CITY           SKY/WX    TMP DP  RH WIND       PRES   REMARKS
BIG PINEY      FAIR      34  23  64 N7        30.39R WCI  28
6HR MIN TEMP:  33; 6HR MAX TEMP:  50;

PINEDALE       FAIR      32  28  86 W5        30.40R WCI  27
DUBOIS         FAIR      43  30  61 NW9       30.40R
LANDER           N/A    N/A N/A N/A MISG      30.31R
RIVERTON       FAIR      54  35  48 NW3       30.28R
6HR MIN TEMP:  51; 6HR MAX TEMP:  63;

CASPER         FAIR      45  37  73 W3        30.28R
6HR MIN TEMP:  45; 6HR MAX TEMP:  58;

DOUGLAS        FAIR      55  42  61 E14       30.27S
6HR MIN TEMP:  51; 6HR MAX TEMP:  58;


$$
WYZ021-027>030-104>119-221300-
SOUTHERN WYOMING

CITY           SKY/WX    TMP DP  RH WIND       PRES   REMARKS
EVANSTON       FAIR      54  36  50 SE8       30.37R
6HR MIN TEMP:  52; 6HR MAX TEMP:  65;

KEMMERER         N/A     43  32  65 N8        30.40R
FORT BRIDGER   FAIR      55  33  44 W3        30.39S
ROCK SPRINGS   FAIR      51  34  52 NW6       30.35R
6HR MIN TEMP:  51; 6HR MAX TEMP:  64;

RAWLINS        NOT AVBL
SARATOGA       FAIR      43  36  75 CALM      30.37R
LARAMIE        FAIR      51  46  83 S17       30.37S
6HR MIN TEMP:  51; 6HR MAX TEMP:  57;

CHEYENNE       CLOUDY    57  49  74 S8        30.35S
6HR MIN TEMP:  51; 6HR MAX TEMP:  60;

TORRINGTON     FAIR      49  44  83 E8        30.28R
6HR MIN TEMP:  49; 6HR MAX TEMP:  60;

PINE BLUFFS    CLOUDY    54  48  82 CALM      30.34R

$$




USA.gov is the U.S. government's official web portal to all federal, state and local government web resources and services.